SCP
0 1 1 1 1 1 1 1 1 0 0 0 0 0 0 0 0 0 0 0 0 0 0 0 0 0 0 0 0 0 0 0 0 0 0 0 0 0 0 0 0 0 0
1 1 1 1 1 1 1 1 1 0 0 0 0 0 0 0 0 0 0 0 0 0 0 0 0 0 0 0 0 0 0 0 0 0 0 0 0 0 0 0 0 0 0
1 1 1 1 1 1 1 1 1 0 0 0 0 0 0 0 0 0 0 0 0 0 0 0 0 0 0 0 0 0 0 0 0 0 0 0 0 0 0 0 0 0 0
1 1 1 1 1 1 1 1 1 1 0 0 0 0 0 0 0 0 0 0 0 0 0 0 0 0 0 0 0 0 0 0 0 0 0 0 0 0 0 0 0 0 0
1 1 1 1 1 1 1 1 1 1 0 0 0 0 0 0 0 0 0 0 0 0 0 0 0 0 0 0 0 0 0 0 0 0 0 0 0 0 0 0 0 0 0
1 1 1 1 1 1 1 1 1 1 1 0 0 0 0 0 0 0 0 0 0 0 0 0 0 0 0 0 0 0 0 0 0 0 0 0 0 0 0 0 0 0 0
1 1 1 1 1 1 1 1 1 1 1 0 0 0 0 0 0 0 0 0 0 0 0 0 0 0 0 0 0 0 0 0 0 0 0 0 0 0 0 0 0 0 0
1 1 1 1 1 1 1 1 1 1 1 1 0 0 0 0 0 0 0 0 0 0 0 0 0 0 0 0 0 0 0 0 0 0 0 0 0 0 0 0 0 0 0
1 1 1 1 1 1 1 1 1 1 1 1 0 0 0 0 0 0 0 0 0 0 0 0 0 0 0 0 0 0 0 0 0 0 0 0 0 0 0 0 0 0 0
1 1 1 1 1 1 1 1 1 1 1 1 1 0 0 0 0 0 0 0 0 0 0 0 0 0 0 0 0 0 0 0 0 0 0 0 0 0 0 0 0 0 0
1 1 1 1 1 1 1 1 1 1 1 1 1 0 0 0 0 0 0 0 0 0 0 0 0 0 0 0 0 0 0 0 0 0 0 0 0 0 0 0 0 0 0
1 1 1 1 1 1 1 1 1 1 1 1 0 0 0 0 0 0 0 0 0 0 0 0 0 0 0 0 0 0 0 0 0 0 0 0 0 0 0 0 0 0 0
1 1 1 1 1 1 1 1 1 1 1 1 0 0 0 0 0 0 0 0 0 0 0 0 0 0 0 0 0 0 0 0 0 0 0 0 0 0 0 0 0 0 0
1 1 1 1 1 1 1 1 1 1 1 1 0 0 0 0 0 0 0 0 0 0 0 0 0 0 0 0 0 0 0 0 0 0 0 0 0 0 0 0 0 0 0
1 1 1 1 1 1 1 1 1 1 1 0 0 0 0 0 0 0 0 0 0 0 0 0 0 0 0 0 0 0 0 0 0 0 0 0 0 0 0 0 0 0 0
1 1 1 1 1 1 1 1 1 1 0 0 0 0 0 0 0 0 0 0 0 0 0 0 0 0 0 0 0 0 0 0 0 0 0 0 0 0 0 0 0 0 0
1 1 1 1 1 1 1 1 1 0 0 0 0 0 0 0 0 0 0 0 0 0 0 0 0 0 0 0 0 0 0 0 0 0 0 0 0 0 0 0 0 0 0
0 0 0 1 1 1 1 1 0 0 0 0 0 0 0 0 0 0 0 0 0 0 0 0 0 0 0 0 0 0 0 0 0 0 0 0 0 0 0 0 0 0 0
0 0 0 0 1 1 1 1 0 0 0 0 0 0 0 0 0 0 0 0 0 0 0 0 0 0 0 0 0 0 0 0 0 0 0 0 0 0 0 0 0 0 0
0 0 0 0 1 1 0 0 0 0 0 0 0 0 0 0 0 0 0 0 0 0 0 0 0 0 0 0 0 0 0 0 0 0 0 0 0 0 0 0 0 0 0
0 0 0 0 0 0 0 0 0 0 0 0 0 0 0 0 0 0 0 0 0 0 0 0 0 0 0 0 0 0 0 0 0 0 0 0 0 0 0 0 0 0 0
0 0 0 0 0 0 0 0 0 0 0 0 0 0 0 0 0 0 0 0 0 0 0 0 0 0 0 0 0 0 0 0 0 0 0 0 0 0 0 0 0 0 0
0 0 0 0 0 0 0 0 0 0 0 0 0 0 0 0 0 0 0 0 0 0 0 0 0 0 0 0 0 0 0 0 0 0 0 0 0 0 0 0 0 0 0
0 0 0 0 0 0 0 0 0 0 0 0 0 0 0 0 0 0 0 0 0 0 0 0 0 0 0 0 0 0 0 0 0 0 0 0 0 0 0 0 0 0 0
0 0 0 0 0 0 0 0 0 0 0 0 0 0 0 0 0 0 0 0 0 0 0 0 0 0 0 0 0 0 0 0 0 0 0 0 0 0 0 0 0 0 0
0 0 0 0 0 0 0 0 0 0 0 0 0 0 0 0 0 0 0 0 0 0 0 0 0 0 0 0 0 0 0 0 0 0 0 0 0 0 0 0 0 0 0
Wind_Speed
8 12 14 13 14 14 14 14 14 13 12 12 12 12 12 12 12 12 12 12 11 11 11 11 11 11 11 11 11 11 11 11 11 11 10 10 10 10 10 8 6 8 10
10 13 14 13 14 14 14 14 13 13 12 12 12 12 12 12 12 12 12 11 11 11 11 11 11 11 11 11 11 11 11 11 10 9 8 9 9 9 9 8 8 7 8
12 13 15 13 13 13 14 13 13 12 12 12 12 12 11 11 11 12 11 11 11 11 10 11 11 11 11 10 10 10 10 10 9 7 4 6 8 8 8 8 8 8 8
12 12 13 13 13 13 13 13 13 12 12 12 11 11 11 11 11 11 11 11 10 10 10 10 10 11 11 10 10 10 9 9 7 3 4 5 6 8 7 8 7 7 7
11 12 13 13 14 13 13 13 12 12 11 11 11 10 11 11 11 10 10 10 10 10 10 10 10 10 10 10 9 9 9 8 5 4 5 5 5 7 7 8 8 8 8
11 12 13 13 13 13 13 13 12 11 11 11 10 10 11 10 10 10 10 10 10 10 10 10 10 10 9 9 9 9 8 6 3 5 5 5 5 6 7 7 7 7 8
11 11 13 13 13 13 12 12 12 11 10 10 10 10 10 10 10 9 9 9 9 9 10 9 9 9 9 8 8 8 7 4 4 5 5 5 6 7 8 8 7 8 8
10 11 12 12 12 12 12 11 11 10 10 10 9 9 10 10 9 9 9 9 9 9 9 9 8 8 8 8 8 7 6 3 4 5 5 6 7 7 7 7 8 8 8
9 9 9 11 11 11 11 11 10 10 10 9 9 9 9 9 9 9 9 8 8 8 8 8 8 8 8 7 7 7 5 3 3 4 5 5 7 7 8 8 8 8 8
7 7 9 9 9 10 10 10 9 9 9 9 9 8 8 8 8 8 8 8 8 8 8 8 7 8 7 7 7 6 4 1 4 4 4 6 7 8 8 8 8 8 8
6 6 7 7 8 8 8 9 9 9 9 9 8 9 7 6 7 6 7 7 7 7 7 7 7 7 6 6 6 4 1 2 4 4 4 7 7 7 8 8 8 8 8
6 6 5 6 6 6 6 7 6 6 7 6 6 7 5 5 4 5 7 7 7 7 7 7 7 6 3 3 4 2 2 3 3 3 5 6 6 7 8 8 8 8 8
7 6 5 5 5 6 4 4 4 4 5 5 6 6 5 4 4 4 4 5 5 5 4 5 4 2 2 2 2 2 2 2 2 3 5 6 7 7 7 7 7 7 7
6 6 5 5 5 5 4 4 4 4 4 4 5 6 5 3 3 3 3 3 3 2 3 2 2 2 3 3 3 3 3 2 2 3 5 7 7 7 7 7 7 7 7
6 6 5 5 5 4 4 3 4 4 4 4 4 5 5 4 4 4 3 3 3 2 2 2 2 3 3 3 3 3 3 3 3 3 3 7 7 6 6 6 6 6 7
6 6 5 5 5 5 4 4 3 3 3 4 4 5 5 4 4 4 3 3 3 2 2 2 3 2 2 2 3 3 3 3 3 3 3 4 6 7 6 6 6 6 7
6 5 5 5 5 5 4 4 3 3 3 3 3 4 4 4 5 4 3 3 3 2 3 2 3 2 2 2 3 3 2 2 2 3 2 2 3 5 6 6 6 7 7
4 5 4 3 4 4 3 3 3 3 3 3 3 3 4 4 4 4 3 3 3 3 2 2 2 2 2 2 3 3 2 2 2 2 2 2 2 2 4 6 7 7 8
3 4 4 4 4 4 3 2 2 2 2 2 2 2 3 3 4 4 3 3 3 3 2 2 2 2 2 2 2 2 2 2 2 2 2 2 2 2 2 4 5 6 8
2 3 3 3 4 3 3 2 2 2 1 1 2 2 3 3 3 3 3 4 4 3 3 3 3 2 2 2 2 2 1 2 2 2 1 1 1 1 1 2 2 3 6
1 1 2 3 4 3 2 2 2 1 1 0 1 2 3 3 3 3 3 4 4 3 3 4 3 4 2 2 2 2 2 2 2 2 1 1 1 0 1 1 2 3 3
1 1 3 4 4 4 3 2 1 1 1 1 1 2 2 3 3 3 4 4 4 4 4 4 4 2 2 2 1 2 2 3 3 2 2 2 1 1 1 1 2 3 4
1 1 2 3 3 3 3 2 2 1 1 1 1 1 2 3 3 3 4 4 4 4 4 5 4 4 3 2 1 2 2 2 1 2 3 2 2 2 1 1 2 3 4
2 1 1 1 2 2 3 4 4 3 3 3 2 2 2 3 3 3 4 4 4 3 4 4 4 3 4 3 2 1 2 1 2 1 2 2 2 2 2 2 2 3 3
2 2 0 1 1 2 3 3 4 3 2 2 2 2 2 2 3 3 3 3 3 3 3 4 4 4 3 3 3 2 1 1 2 2 2 2 2 2 2 3 2 2 3
2 2 1 1 0 1 2 2 3 3 3 3 3 2 2 2 2 3 3 3 3 3 3 3 3 4 3 3 2 2 1 1 1 2 3 3 3 2 2 2 2 3 3
Wind_Direction
159 154 150 151 146 141 138 138 135 132 130 128 126 123 121 117 114 110 106 103 103 102 102 101 99 97 93 89 86 83 81 80 77 73 72 73 73 73 68 58 56 68 61
152 153 148 148 145 141 139 137 135 133 131 130 128 125 122 119 116 112 107 105 103 102 100 99 98 96 94 90 88 86 83 81 78 73 74 81 73 69 66 58 47 59 61
146 149 149 146 144 141 139 137 134 132 132 130 128 126 124 122 119 115 111 106 103 100 98 96 94 92 90 90 89 87 84 81 78 71 77 82 79 67 64 63 61 62 60
145 149 150 143 142 141 140 138 136 134 131 129 129 129 127 124 121 117 113 108 105 102 100 97 94 92 89 89 88 88 86 83 76 63 76 71 73 66 60 63 61 59 56
145 148 142 141 140 140 139 138 136 135 134 132 131 131 129 126 121 117 115 112 107 104 101 98 95 93 91 89 88 88 88 84 80 74 73 71 70 65 62 61 56 55 54
146 147 142 142 140 139 139 138 136 135 135 134 133 131 128 125 121 117 113 112 109 106 103 99 96 94 92 90 88 87 86 87 101 79 71 68 70 64 58 59 54 52 51
149 147 146 144 142 141 139 138 136 136 136 135 135 133 130 125 123 120 116 111 111 109 106 104 101 98 95 93 90 87 83 69 76 80 74 68 63 62 60 59 55 51 49
149 147 146 145 143 142 140 138 137 135 135 134 133 133 130 128 125 125 121 116 114 113 110 106 102 99 97 94 92 89 81 60 84 80 77 72 62 60 59 56 51 49 45
145 144 145 151 148 143 140 138 136 134 131 128 128 126 124 124 125 123 120 117 114 112 107 105 102 100 98 95 93 89 80 47 78 79 76 68 59 58 58 55 51 48 45
140 143 145 149 152 153 149 138 134 130 127 124 121 118 118 119 120 119 118 114 113 110 109 107 105 102 98 94 94 91 86 121 83 82 72 67 61 60 58 56 52 47 42
141 141 145 147 151 152 153 145 141 132 128 130 125 118 128 139 137 131 112 109 112 110 109 111 109 105 104 101 95 97 134 96 88 74 69 60 59 59 57 55 52 47 42
154 150 146 147 148 150 150 154 156 153 151 155 148 145 147 143 133 126 110 106 106 107 110 108 111 121 134 122 119 149 121 103 90 82 70 54 57 59 58 54 50 45 39
163 154 152 151 151 151 152 155 157 156 157 159 155 152 148 140 137 138 136 130 126 129 126 124 140 133 127 114 120 119 106 102 90 86 68 50 55 58 55 52 48 42 34
165 160 160 159 157 158 158 160 162 161 161 158 160 158 154 148 152 149 148 146 147 146 141 142 128 121 128 130 129 123 122 109 95 87 68 50 53 54 55 51 46 40 33
174 171 170 170 164 161 161 161 165 167 164 158 161 163 163 159 160 156 151 149 150 148 150 145 141 129 130 129 127 130 127 116 108 100 87 57 48 52 54 49 41 35 29
189 185 179 178 173 170 169 168 170 167 161 162 165 165 167 163 162 163 154 151 150 153 149 153 140 138 132 136 134 130 124 120 109 104 93 84 60 49 50 43 34 28 23
199 193 188 180 177 177 172 168 170 171 163 166 165 167 169 166 165 162 156 155 153 153 153 148 138 141 134 138 140 133 126 123 121 107 94 83 88 63 50 41 34 25 18
207 198 193 176 180 177 172 171 167 174 168 162 160 167 167 166 167 162 159 156 155 155 156 150 153 153 150 157 153 145 145 144 136 114 103 88 70 66 61 42 30 22 14
216 204 195 186 180 171 165 160 152 152 165 155 154 160 158 159 168 167 160 153 158 157 157 155 159 164 158 153 149 152 159 163 151 149 126 99 74 49 43 51 32 18 7
225 206 190 193 176 152 141 131 119 120 138 161 159 159 164 160 164 167 161 157 160 159 157 161 153 151 150 148 151 151 175 178 185 174 162 141 100 56 26 8 3 14 4
239 205 196 185 163 152 155 164 167 177 161 174 167 158 171 167 167 167 165 163 169 171 169 165 156 153 145 146 163 172 182 196 205 197 213 220 164 23 1 350 343 340 343
226 209 195 182 175 175 178 182 185 181 188 187 200 170 175 176 172 172 175 173 175 174 172 172 165 161 146 171 209 200 204 193 197 216 225 234 256 262 292 318 333 336 333
315 266 215 185 179 177 164 143 127 134 147 167 193 195 193 186 179 175 181 181 178 179 178 179 178 176 169 170 222 262 248 239 191 189 214 230 257 270 262 278 305 318 325
329 310 239 192 173 168 172 169 173 189 197 218 211 211 196 191 184 180 179 181 176 178 178 178 184 185 181 177 177 267 315 335 264 234 199 215 257 265 269 274 293 303 317
342 338 260 163 169 172 187 186 185 196 203 199 193 195 191 184 181 178 177 179 175 177 181 181 180 182 191 191 184 184 192 231 265 265 259 254 258 251 274 281 287 299 317
354 359 3 132 122 189 185 199 197 197 195 191 194 191 198 191 183 178 176 175 173 173 175 183 180 180 186 190 190 191 193 205 225 259 273 286 289 282 279 283 289 305 320